Regional Weather Roundup
Issued by NWS

Home | Current Version | Previous Version | Graphics & Text | Print | Product List | Glossary On
Versions: 1 2 3 4 5 6 7 8 9 10 11 12 13 14 15 16 17 18 19 20 21 22 23 24 25 26 27 28 29 30 31 32 33 34 35 36 37 38 39 40 41 42 43 44 45 46 47 48 49 50
000
ASUS44 KMEG 242110
RWRTN
TENNESSEE HOURLY STATE WEATHER ROUNDUP
NATIONAL WEATHER SERVICE MEMPHIS TN
300 PM CST FRI NOV 24 2017

TNZ002-004-019-021-049-052-054-088>092-242200-
WEST TENNESSEE

CITY           SKY/WX    TMP DP  RH WIND       PRES   REMARKS
MEMPHIS INTL   PTSUNNY   62  32  32 SW10      29.89F
NWS MEMPHIS      N/A     62 N/A N/A MISG        N/A
JACKSON        SUNNY     62  32  32 SW10      29.88F
DYERSBURG      SUNNY     64  34  32 S8        29.86F
SOMERVILLE     SUNNY     63  30  29 VRB7G15   29.88F
COVINGTON      SUNNY     63  32  31 SW10G16   29.88F
UNION CITY     SUNNY     63  34  34 S14       29.84F
BOLIVAR        SUNNY     63  28  27 S8        29.89F
PARIS          SUNNY     61  32  33 S10       29.85F HAZE
HUNTINGDON     SUNNY     63  32  31 S12       29.86F
LEXINGTON      SUNNY     63  27  25 S10       29.89F
SELMER         SUNNY     61  28  29 VRB6      29.90F
SAVANNAH       SUNNY     61  27  27 S5        29.90F
$$

TNZ008-025-027-028-033-062-065-066-242200-
NORTH MIDDLE TENNESSEE

CITY           SKY/WX    TMP DP  RH WIND       PRES   REMARKS
NASHVILLE      PTSUNNY   63  24  22 SW9       29.89F
PORTLAND       SUNNY     59  25  27 S7        29.88S
CLARKSVILLE    SUNNY     61  25  25 SW8       29.87F
SMYRNA         SUNNY     62  29  28 S6        29.90F
COOKEVILLE     SUNNY     61  34  36 SW7G14    29.90S
GALLATIN       SUNNY     63  23  22 SW8       29.91S
CROSSVILLE     CLOUDY    59  35  40 VRB5      29.91F
$$

TNZ061-075-076-078-094-096-097-242200-
SOUTH MIDDLE TENNESSEE

CITY           SKY/WX    TMP DP  RH WIND       PRES   REMARKS
FAYETTEVILLE   SUNNY     61  36  39 S10       29.91F
TULLAHOMA      SUNNY     61  36  39 S7        29.90F
WINCHESTER     SUNNY     59  39  47 W7        29.92F
MCMINNVILLE    SUNNY     61  36  39 SW5       29.90F
COLUMBIA       SUNNY     63  27  25 SW9       29.88F
SHELBYVILLE    SUNNY     59  37  44 S9        29.90F
$$

TNZ017-018-042-046-047-242200-
NORTHEAST TENNESSEE

CITY           SKY/WX    TMP DP  RH WIND       PRES   REMARKS
TRI CITIES     SUNNY     60  37  42 NW3       29.92S
ELIZABETHTON   SUNNY     61  36  39 W6        29.91S
$$

TNZ012-013-036-069-073-074-242200-
CENTRAL EAST TENNESSEE

CITY           SKY/WX    TMP DP  RH WIND       PRES   REMARKS
KNOXVILLE      MOSUNNY   59  42  53 W5        29.92S
OAK RIDGE      SUNNY     59  38  45 SW5       29.94S
DOWNTOWN KNOXV SUNNY     61  41  48 W6        29.93S
GATLINBURG     SUNNY     61  39  44 CALM      29.92S
MORRISTOWN     SUNNY     57  37  47 W6        29.92S
JACKSBORO      SUNNY     61  37  41 S6        29.95S
$$

TNZ083-085-099-242200-
SOUTHEAST TENNESSEE

CITY           SKY/WX    TMP DP  RH WIND       PRES   REMARKS
CHATTANOOGA    MOSUNNY   62  38  40 SE3       29.93S
DAYTON         CLEAR     61  45  55 S3        29.92S
$$

SKY/WX REPORTED AS FAIR MEANS FEW OR NO CLOUDS BELOW
12 THOUSAND FEET.





USA.gov is the U.S. government's official web portal to all federal, state and local government web resources and services.